This is the latest recevied weather packets stored in our database for station/object GUNLAK-WX. If no packets are shown the sender has not sent any weather packets the latest 10 day(s).
| Time | Temp. | Humidity | Pressure | Rain* | Wind** | Luminosity | Snow |
|---|---|---|---|---|---|---|---|
| 1777725974 | 2.22° C | 81% | 991 hPa | 0 mm | - | - | - |
| 1777725092 | 1.67° C | 80% | 991.9 hPa | 0 mm | - | - | - |
| 1777724176 | 1.67° C | 80% | 991.9 hPa | 0 mm | - | - | - |
| 1777723318 | 1.11° C | 80% | 991.9 hPa | 0 mm | - | - | - |
| 1777722375 | 0.56° C | 87% | 991.6 hPa | 0 mm | - | - | - |
| 1777721496 | 0° C | 85% | 991.6 hPa | 0 mm | - | - | - |
| 1777720575 | 0° C | 85% | 991.6 hPa | 0 mm | - | - | - |
| 1777719704 | -0.56° C | 85% | 991.6 hPa | 0 mm | - | - | - |
| 1777718774 | -0.56° C | 84% | 991.4 hPa | 0 mm | - | - | - |
| 1777717893 | -0.56° C | 84% | 991.7 hPa | 0 mm | - | - | - |
| 1777716974 | 0° C | 84% | 991.7 hPa | 0 mm | - | - | - |
| 1777716104 | -0.56° C | 84% | 991.7 hPa | 0 mm | - | - | - |
| 1777715175 | -0.56° C | 85% | 990.9 hPa | 0 mm | - | - | - |
| 1777713374 | -0.56° C | 87% | 991.2 hPa | 0 mm | - | - | - |
| 1777712504 | -0.56° C | 87% | 991.2 hPa | 0 mm | - | - | - |
| 1777711573 | -0.56° C | 84% | 990.9 hPa | 0 mm | - | - | - |
| 1777710693 | -0.56° C | 84% | 991.1 hPa | 0 mm | - | - | - |
| 1777709775 | -0.56° C | 84% | 991.1 hPa | 0 mm | - | - | - |
| 1777708908 | -0.56° C | 84% | 991.1 hPa | 0 mm | - | - | - |
| 1777707974 | -0.56° C | 83% | 990.4 hPa | 0 mm | - | - | - |
| 1777707088 | 0° C | 83% | 990.4 hPa | 0 mm | - | - | - |
| 1777706174 | -0.56° C | 83% | 990.4 hPa | 0 mm | - | - | - |
| 1777705305 | -0.56° C | 83% | 990.4 hPa | 0 mm | - | - | - |
| 1777704375 | 0° C | 80% | 991.5 hPa | 0 mm | - | - | - |
| 1777703494 | 0° C | 81% | 991.5 hPa | 0 mm | - | - | - |
* Rain latest hour (hover to see other rain measurements)
** Current wind speed in m/s (hover to see current wind gust speed)